Пархар

Таджикистан     37°29′18″N   69°24′04″E
темп.,
°C
ветер,
м/с
пор.,
м/с
влажн.,
%
обл.,
%
осадки,
мм/ч
давл.,
гПа
погр.,
м
12 августа, пт
пт1223:00+26ю112011 0.0 100614
02:00+24ссз222494 0.0 100613
05:00+23ссз22275 0.0 100620
08:00+28с11200 0.0 1007263
11:00+34юз11130 0.0 10051496
14:00+38юв12110 0.0 10012564
17:00+39ю12110 0.0 10002811
20:00+31юз35180 0.0 100161
13 августа, сб
сб1323:00+27ю11220 0.0 100317
02:00+25ссз11250 0.0 100411
05:00+24ссз33270 0.0 100422
08:00+29с21190 0.0 1005254
11:00+36юз11130 0.0 10031576
14:00+39всв01100 0.0 10002903
17:00+40зсз22100 0.0 9992947
20:00+31ююз23160 0.0 100022
14 августа, вс
вс1423:00+28ююз01190 0.0 100113
02:00+25ссз22220 0.0 100211
05:00+24ссз22250 0.0 100312
08:00+29с11180 0.0 1004237
11:00+36ююз121113 0.0 10021264
14:00+40юв12997 0.0 9992562
17:00+41сз129100 0.0 9982727
20:00+33ююз231420 0.0 99939
15 августа, пн
пн1523:00+29ю11185 0.0 100112
02:00+26ссз222131 0.0 100111
05:00+25ссз222297 0.0 100220
08:00+30ссв111690 0.0 1003229
11:00+37ю221127 0.0 10021272
14:00+41ю12822 0.0 9992903
17:00+42з3385 0.0 9983000
20:00+33юз231476 0.0 100019
16 августа, вт
вт1623:00+29ю11175 0.0 100216
02:00+27зюз01192 0.0 100311
05:00+25ссз11220 0.0 100411
08:00+30ссв11165 0.0 1005265
11:00+37ююз12101 0.0 10031351
14:00+41зюз4380 0.0 10003248
17:00+40з6491 0.0 9992918
20:00+32зюз331499 0.0 100121